EW9523 Weather Reports


Display with metric or nautical units.
time (UTC)temp
F
wind
direction
speed
MPH
gust
MPH
rain 1hr
in
rain 24hr
in
rain mn
in
humidity
%
barometer
mb
20260502220219 65 126 5.0 15.0 0.00 0.00 0.00 73 1010.6
20260502215206 64 114 5.0 13.0 0.00 0.00 0.00 75 1010.7
20260502214206 64 100 4.0 10.0 0.00 0.00 0.00 76 1010.7
20260502213206 63 103 5.0 12.0 0.00 0.00 0.00 77 1010.9
20260502212646 63 168 3.0 10.0 0.00 0.00 0.00 78 1011.1
20260502211202 62 220 5.0 12.0 0.00 0.00 0.00 77 1011.1
20260502210201 62 211 4.0 11.0 0.00 0.00 0.00 78 1011.1
20260502205202 62 10 5.0 12.0 0.00 0.00 0.00 79 1011.3
20260502204200 62 78 4.0 11.0 0.00 0.00 0.00 78 1011.4
20260502204117 62 104 4.0 10.0 0.00 0.00 0.00 79 1011.6
20260502202156 61 103 5.0 10.0 0.00 0.00 0.00 80 1011.5
20260502201155 61 130 5.0 12.0 0.00 0.00 0.00 79 1011.5
20260502201111 61 134 4.0 11.0 0.00 0.00 0.00 80 1011.7
20260502195150 60 117 5.0 12.0 0.00 0.00 0.00 82 1011.8
20260502194150 60 63 4.0 9.0 0.00 0.00 0.00 83 1011.9
20260502193147 58 134 3.0 8.0 0.00 0.00 0.00 84 1011.9
20260502192146 58 221 2.0 7.0 0.00 0.00 0.00 84 1012.0
20260502191147 58 107 2.0 7.0 0.00 0.00 0.00 85 1012.0
20260502190144 58 144 3.0 7.0 0.00 0.00 0.00 87 1012.0
20260502185142 57 172 3.0 10.0 0.00 0.00 0.00 87 1011.9
20260502184142 57 182 4.0 9.0 0.00 0.00 0.00 87 1011.8
20260502183130 56 182 3.0 7.0 0.00 0.00 0.00 88 1011.8
20260502182120 56 207 2.0 6.0 0.00 0.00 0.00 89 1011.6
20260502181120 56 134 2.0 7.0 0.00 0.00 0.00 91 1011.7
20260502180118 56 157 2.0 7.0 0.00 0.00 0.00 90 1011.7
20260502170112 54 155 1.0 3.0 0.00 0.00 0.00 94 1011.9
20260502164101 53 134 1.0 3.0 0.00 0.00 0.00 94 1012.0
20260502163057 53 136 0.0 2.0 0.00 0.00 0.00 94 1011.9
20260502162529 53 183 0.0 3.0 0.00 0.00 0.00 95 1011.9
20260502161054 53 225 1.0 3.0 0.00 0.00 0.00 95 1011.9
20260502152034 52 173 0.0 2.0 0.00 0.00 0.00 95 1011.3
20260502151025 52 215 1.0 3.0 0.00 0.00 0.00 96 1011.4
20260502122939 52 244 1.0 5.0 0.00 0.00 0.00 96 1010.4
20260502121940 52 90 0.0 1.0 0.00 0.00 0.00 96 1010.3
20260502120939 52 90 0.0 2.0 0.00 0.00 0.00 96 1010.5
20260502114932 52 202 0.0 2.0 0.00 0.00 0.00 96 1010.6
20260502113930 52 139 0.0 0.0 0.00 0.00 0.00 96 1010.5
20260502112928 52 139 0.0 2.0 0.00 0.00 0.00 95 1010.6
20260502112405 52 139 1.0 3.0 0.00 0.00 0.00 95 1010.7
20260502110927 52 99 1.0 4.0 0.00 0.00 0.00 95 1010.5
20260502110407 52 107 1.0 4.0 0.00 0.00 0.00 95 1010.5
20260502104928 52 109 2.0 4.0 0.00 0.00 0.00 95 1010.5
20260502103923 52 95 0.0 3.0 0.00 0.00 0.00 95 1010.8
20260502102923 52 184 1.0 3.0 0.00 0.00 0.00 95 1010.6
20260502101923 52 229 0.0 1.0 0.00 0.00 0.00 95 1010.6
20260502100923 52 146 0.0 3.0 0.00 0.00 0.00 95 1010.6
20260502091341 52 118 0.0 3.0 0.00 0.00 0.00 95 1011.1
20260502070759 53 121 0.0 0.0 0.00 0.00 0.00 92 1011.3
20260502065732 53 121 0.0 0.0 0.00 0.00 0.00 91 1011.3
20260502064733 53 121 0.0 1.0 0.00 0.00 0.00 91 1011.3
20260502063733 54 115 0.0 2.0 0.00 0.00 0.00 91 1011.4
20260502062722 54 115 0.0 1.0 0.00 0.00 0.00 91 1011.2
20260502061714 54 115 0.0 2.0 0.00 0.00 0.00 90 1011.3
20260502060714 55 115 0.0 1.0 0.00 0.00 0.00 89 1011.4
20260502060159 55 115 0.0 2.0 0.00 0.00 0.00 88 1011.5
20260502055600 55 120 0.0 2.0 0.00 0.00 0.00 88 1011.5
20260502053636 56 120 0.0 0.0 0.00 0.00 0.00 88 1011.5
20260502053110 56 120 0.0 2.0 0.00 0.00 0.00 87 1011.5
20260502051632 56 120 0.0 1.0 0.00 0.00 0.00 86 1011.4
20260502050600 57 120 0.0 2.0 0.00 0.00 0.00 86 1011.5
20260502045541 58 121 1.0 4.0 0.00 0.00 0.00 84 1011.6
20260502045014 58 145 0.0 2.0 0.00 0.00 0.00 83 1011.5
20260502043528 59 145 0.0 2.0 0.00 0.00 0.00 82 1011.4
20260502042512 60 92 1.0 3.0 0.00 0.00 0.00 81 1011.2
20260502041458 61 108 1.0 3.0 0.00 0.00 0.00 80 1011.2
20260502040454 62 169 1.0 5.0 0.00 0.00 0.00 79 1011.0
20260502035454 63 200 1.0 3.0 0.00 0.00 0.00 77 1010.9
20260502034452 63 118 1.0 3.0 0.00 0.00 0.00 75 1010.7
20260502033443 64 105 1.0 5.0 0.00 0.00 0.00 74 1010.7
20260502032917 65 105 2.0 6.0 0.00 0.00 0.00 72 1010.5
20260502031927 66 96 2.0 6.0 0.00 0.00 0.00 70 1010.4
20260502030919 67 132 1.0 5.0 0.00 0.00 0.00 69 1010.3
20260502025436 68 93 2.0 6.0 0.00 0.00 0.00 68 1010.2
20260502024434 69 116 1.0 6.0 0.00 0.00 0.00 68 1010.2
20260502023928 69 118 2.0 6.0 0.00 0.00 0.00 65 1010.1
20260502022434 70 163 2.0 7.0 0.00 0.00 0.00 66 1010.1
20260502021426 71 150 2.0 4.0 0.00 0.00 0.00 64 1010.1
20260502020427 71 135 2.0 7.0 0.00 0.00 0.00 64 1010.1
20260502015902 72 119 3.0 10.0 0.00 0.00 0.00 63 1010.0
20260502014854 72 159 2.0 7.0 0.00 0.00 0.00 63 1010.0
20260502013416 73 107 4.0 13.0 0.00 0.00 0.00 62 1010.1
20260502012414 74 164 4.0 11.0 0.00 0.00 0.00 60 1010.0
20260502011414 76 156 4.0 12.0 0.00 0.00 0.00 60 1010.0
20260502010411 76 129 4.0 14.0 0.00 0.00 0.00 60 1009.9
20260502005411 77 166 3.0 11.0 0.00 0.00 0.00 61 1010.1
20260502004410 77 215 4.0 11.0 0.00 0.00 0.00 61 1010.2
20260502003407 78 113 3.0 10.0 0.00 0.00 0.00 59 1010.3
20260502002408 78 260 2.0 8.0 0.00 0.00 0.00 60 1010.2
20260502001410 78 87 4.0 12.0 0.00 0.00 0.00 58 1010.1
20260502000404 78 165 3.0 9.0 0.00 0.00 0.00 58 1010.1
20260501235846 78 116 5.0 13.0 0.00 0.00 0.00 60 1010.1
20260501234403 78 62 3.0 10.0 0.00 0.00 0.00 61 1010.3
20260501233400 78 112 4.0 13.0 0.00 0.00 0.00 58 1010.4
20260501232358 78 149 2.0 7.0 0.00 0.00 0.00 61 1010.4
20260501231358 78 150 4.0 9.0 0.00 0.00 0.00 58 1010.5
20260501230831 78 143 3.0 11.0 0.00 0.00 0.00 58 1010.7
20260501225355 77 175 4.0 13.0 0.00 0.00 0.00 61 1010.7
20260501224355 77 164 3.0 9.0 0.00 0.00 0.00 61 1010.9
20260501223352 77 121 3.0 10.0 0.00 0.00 0.00 61 1011.1
20260501222835 77 103 3.0 10.0 0.00 0.00 0.00 59 1011.3
20260501221350 78 173 2.0 7.0 0.00 0.00 0.00 59 1011.6